Starlink 32201

operational
NORAD ID: 61512 Int'l Des: 2024-183 Owner: SPXS Country: US Constellation: starlink
LEOCIRCULAR

Starlink 32201について

説明を読み込み中...

リアルタイム位置

3D地球を読み込み中...

次回通過

高度履歴

Altitude vs Time

uPlot chart will show altitude changes over time

軌道要素

1 61512U 24183D 25259.16854708 .00000895 00000-0 32365-4 0 9990
2 61512 53.1585 223.0548 0001576 93.2660 266.8525 15.39623008 53079
Epoch: Sep 16, 2025 • Age: 9 hours

現在のステータス

高度 450.3 km
速度 7.64 km/s
衛星直下点 -10.60°S, 136.39°W
打ち上げ日 Oct 15, 2024
運用期間 0.9 years
タイプ internet

技術仕様

分類 Payload
質量 730.00 kg
乾燥質量 700.00 kg
総質量 730.00 kg
長さ 0.30 m
直径 4.10 m
スパン 29.00 m
形状 Box + pan
製造者 SPXS
バスタイプ Starlink V2M
フェーズステータス In Orbit
所有者/国 SPXS/US

大規模コンステレーション

Loading constellations...